SCP
0 0 1 0 1 2 3 1 1 0 1 1 1 1 0 0 0 0 0 0 0 0 0 0 0 0 0 0 0 0 0 0 0 0 0 0 0 0
0 0 0 1 1 0 0 0 0 0 0 0 0 1 0 0 0 0 0 0 0 0 0 0 0 0 0 0 0 0 0 0 0 0 -0 -0 -0 0
0 0 0 0 0 1 1 0 1 1 0 0 2 1 0 0 0 0 0 0 0 0 0 0 0 0 0 0 0 0 0 0 -0 -0 -0 -0 -0 0
0 0 0 0 0 0 0 0 0 1 0 0 1 1 0 0 0 0 0 0 0 0 0 0 0 0 0 0 0 0 0 0 -0 -0 -0 -0 0 0
0 0 0 0 0 0 0 0 0 0 0 0 1 0 0 0 0 0 0 0 0 0 0 0 0 0 0 0 0 0 0 0 -0 0 -0 -0 0 0
0 0 0 0 0 0 0 0 0 0 0 0 0 0 0 0 0 0 0 0 0 0 0 0 0 0 0 0 0 0 0 0 0 0 0 0 0 0
0 0 0 0 0 0 0 0 0 0 0 0 0 0 0 0 0 0 0 0 0 0 0 0 0 0 0 0 0 0 0 0 0 0 0 0 0 0
0 0 0 0 0 0 0 0 0 0 0 0 0 0 0 0 0 0 0 0 0 0 0 0 0 0 0 0 0 0 0 0 0 0 0 0 0 0
0 0 0 0 0 0 0 0 0 0 0 0 0 0 0 0 0 0 0 0 0 0 0 0 0 0 0 0 0 0 0 0 0 0 0 0 0 0
0 0 0 0 0 0 0 0 0 0 0 0 0 0 0 0 0 0 0 0 0 0 0 0 0 0 0 0 0 0 0 0 0 0 0 0 0 0
0 0 0 0 0 0 0 0 0 0 0 0 0 0 0 0 0 0 0 0 0 0 0 0 0 0 0 0 0 0 0 0 0 0 0 0 0 0
1 1 0 0 0 0 0 0 0 0 0 0 0 0 0 0 0 0 0 0 0 0 0 0 0 0 0 0 0 0 0 0 0 0 0 0 0 0
1 1 0 0 0 0 0 1 0 1 0 0 0 0 0 0 0 0 0 0 0 0 0 0 0 0 0 0 0 0 0 0 0 0 0 0 0 0
1 1 0 0 0 0 0 0 0 0 1 0 0 0 0 0 0 0 0 0 0 0 0 0 0 0 0 0 0 0 0 0 0 0 0 0 0 0
0 0 0 0 0 0 0 0 0 0 0 0 0 0 0 0 0 0 0 0 0 0 0 0 0 0 0 0 0 0 0 0 0 0 0 0 0 0
0 0 0 0 0 0 0 0 0 0 1 0 0 0 0 0 0 0 0 0 0 0 0 0 0 0 0 0 0 0 0 0 0 0 0 0 0 0
0 0 0 0 0 0 0 0 0 0 0 0 1 1 1 1 1 0 0 0 0 0 0 0 0 0 0 0 0 0 0 0 0 0 0 0 0 0
0 0 0 0 0 0 0 0 0 0 0 1 1 1 1 1 0 0 0 0 0 0 0 0 1 1 0 0 0 0 0 0 0 0 0 0 0 0
0 0 0 0 0 0 0 0 0 0 0 0 0 0 0 0 0 0 0 0 0 0 0 0 0 0 0 0 0 0 0 0 0 0 0 0 0 0
0 0 0 0 0 0 0 0 0 0 0 0 0 0 0 0 0 0 0 0 0 0 0 0 0 0 0 0 0 0 0 0 0 0 0 0 0 0
0 0 0 0 0 0 0 0 0 0 0 0 0 0 0 0 0 0 0 0 0 0 0 0 0 0 0 0 0 0 0 0 0 0 0 0 0 0
0 0 0 0 0 0 0 0 0 0 0 0 0 0 0 0 0 0 0 0 0 0 0 0 0 0 0 0 0 0 0 0 0 0 0 0 0 0
0 0 0 0 0 0 0 0 0 0 0 0 0 0 0 0 0 0 0 0 0 0 0 0 0 -0 -0 0 0 0 0 0 0 0 0 0 0 0
Wind_Speed_500mb
38 38 39 48 51 37 35 22 22 28 32 31 27 29 22 26 32 29 28 26 24 23 25 25 24 21 20 19 18 18 21 24 24 25 28 31 31 33
37 34 33 38 41 43 43 46 42 40 37 28 30 36 39 32 29 26 28 25 22 21 22 16 15 11 13 11 12 11 11 16 23 26 27 33 39 41
32 33 30 30 34 35 35 36 33 35 41 27 33 34 36 26 29 28 28 29 26 23 21 14 13 10 10 9 10 10 11 13 19 27 33 43 40 40
27 27 27 31 36 34 29 32 32 37 46 43 39 38 33 37 31 26 31 31 25 21 22 17 15 14 13 11 8 8 11 14 22 30 39 36 44 35
24 25 26 28 33 32 30 32 35 33 35 35 30 40 43 43 36 35 35 29 27 25 24 22 19 16 15 14 12 11 12 18 25 33 41 41 36 28
22 22 23 27 28 29 33 33 33 34 32 32 35 41 41 41 44 40 39 34 28 28 22 20 19 19 17 16 13 13 15 29 39 38 38 37 32 27
22 20 21 24 30 30 23 27 30 29 26 25 33 45 45 46 47 46 42 34 31 28 24 23 22 21 21 18 18 18 23 26 34 32 28 26 26 25
19 22 24 33 40 46 44 41 33 27 31 30 33 38 43 41 44 47 46 42 41 32 26 22 19 21 19 21 25 21 27 27 29 28 25 26 26 26
25 26 27 29 36 33 36 43 48 50 50 39 38 32 29 34 38 43 54 46 42 29 34 30 29 27 25 27 26 36 31 31 32 29 26 27 28 27
29 30 32 36 31 33 32 38 34 41 48 45 37 33 33 40 28 38 48 40 46 41 32 30 31 34 35 34 30 34 36 35 32 30 30 29 29 27
34 36 38 39 39 46 44 34 34 31 34 36 42 41 36 38 32 42 52 53 54 47 44 39 36 37 35 41 35 36 40 38 36 34 33 31 29 29
37 39 42 47 45 50 55 50 41 44 36 40 40 46 39 37 37 43 46 60 55 47 46 54 40 43 32 34 35 37 46 46 42 39 36 33 33 33
48 46 44 51 51 53 63 59 51 42 37 44 41 34 39 40 41 45 45 47 58 49 37 55 40 42 33 29 45 45 45 51 50 47 44 41 38 34
57 52 51 56 58 62 64 66 59 51 43 42 45 40 39 41 41 45 51 50 46 42 39 44 42 46 43 37 39 43 38 39 46 50 49 44 41 39
61 58 63 65 70 71 67 73 68 68 54 52 50 49 47 42 40 42 43 49 53 52 52 47 53 44 46 49 44 43 41 47 46 39 40 47 48 45
55 55 60 73 80 95 83 80 82 77 61 58 56 50 47 48 54 52 47 49 44 45 50 54 57 55 41 40 44 50 52 52 52 48 45 43 43 34
33 48 50 53 55 65 84 91 91 84 73 61 60 59 61 57 52 55 58 52 52 51 53 55 52 58 46 42 37 41 46 55 47 54 52 50 49 37
49 57 53 45 38 41 45 57 81 74 68 69 69 68 63 66 65 63 63 62 61 56 55 52 48 47 46 44 43 36 33 39 43 43 44 40 43 49
54 50 46 34 28 36 40 57 53 61 67 66 67 70 65 67 70 74 71 72 67 72 55 54 46 46 43 42 37 40 28 28 30 35 37 36 32 35
32 39 38 34 34 31 30 51 58 61 59 57 61 55 57 60 69 74 76 71 65 33 38 56 51 36 24 24 21 27 21 15 17 22 26 25 26 29
21 25 29 32 30 29 33 35 40 45 40 43 50 47 49 50 56 44 35 31 27 40 33 15 0 11 8 14 14 22 19 23 25 23 20 15 11 13
23 26 30 32 28 26 25 25 27 30 38 44 42 37 28 25 19 20 26 20 19 10 11 8 12 13 14 10 9 18 16 18 19 26 26 23 18 13
10 7 6 5 12 20 22 23 20 18 15 19 27 29 28 38 28 28 24 19 14 15 14 19 25 22 15 19 16 12 16 11 10 5 13 18 19 29
Wind_Direction_500mb
259 254 243 229 216 216 221 225 230 242 261 258 256 259 240 252 260 265 262 278 279 285 287 283 279 276 277 277 271 259 245 234 226 218 213 221 188 178
252 249 239 228 223 226 236 245 251 249 251 253 252 250 253 266 259 254 262 270 268 279 280 271 269 274 275 276 274 257 236 214 207 202 189 177 175 173
246 241 233 234 233 244 241 242 250 245 248 253 247 246 269 250 258 259 262 261 271 269 267 266 261 247 254 242 236 225 206 190 182 178 174 176 174 170
239 235 233 234 244 239 240 242 244 247 244 251 251 251 246 270 265 259 259 264 262 261 247 240 241 236 238 239 229 198 182 181 157 164 167 176 173 179
236 242 238 228 237 239 239 246 250 255 250 247 249 249 253 263 262 254 255 255 258 249 231 234 232 235 234 235 225 211 194 187 178 179 176 166 176 180
242 234 237 245 244 241 241 241 241 248 249 249 246 252 254 257 259 249 247 241 235 227 231 237 238 232 231 231 220 208 160 160 164 165 170 174 187 195
260 258 251 246 243 246 237 247 242 248 247 248 244 253 260 258 251 243 236 231 227 226 226 229 226 228 224 215 203 182 184 194 186 174 181 192 201 207
249 255 254 263 256 250 250 246 242 236 241 248 263 263 263 257 251 238 223 217 217 215 208 215 220 209 236 217 196 198 204 202 200 192 201 203 211 222
241 240 251 259 260 252 263 253 248 248 249 246 250 262 269 266 243 231 220 219 217 222 211 210 211 219 222 225 206 205 211 205 203 207 219 225 227 225
237 245 248 251 246 248 241 260 263 250 247 241 248 246 246 263 252 230 219 217 216 220 204 206 202 213 217 235 226 215 207 206 216 227 228 224 222 225
247 243 244 247 248 250 251 240 244 244 249 242 234 238 242 241 243 216 213 208 212 218 212 206 206 212 218 230 233 221 217 216 222 225 226 224 223 224
258 259 249 245 240 252 254 249 232 244 237 253 250 245 245 242 238 230 225 219 216 213 215 204 200 203 212 219 231 228 219 220 221 226 226 226 223 224
250 250 251 254 259 256 249 250 238 240 242 233 242 237 237 237 231 222 219 225 223 219 225 214 203 201 206 208 222 237 230 223 220 224 223 222 224 225
256 256 257 255 258 260 257 256 247 234 231 237 232 231 228 224 229 228 218 225 223 225 226 218 211 208 212 208 199 213 224 221 225 227 225 224 224 223
263 257 252 254 255 254 254 251 248 234 229 234 232 234 235 229 228 227 233 227 224 224 218 221 211 219 219 222 211 213 212 214 226 220 228 225 223 226
272 270 266 264 259 255 248 242 243 230 226 230 236 236 235 234 230 220 220 229 219 223 217 229 224 213 221 218 226 216 204 207 220 215 215 223 237 238
255 267 281 290 280 265 257 252 235 222 224 225 232 236 233 225 224 231 231 231 217 216 218 221 223 215 216 224 225 224 215 212 210 217 214 214 218 218
267 272 275 288 288 281 263 237 223 220 228 230 233 238 239 239 233 225 225 222 215 214 220 212 214 212 216 225 227 223 218 219 221 212 210 216 217 229
260 262 267 278 276 270 252 218 215 221 226 236 242 243 247 248 243 229 225 220 225 215 216 213 214 213 217 229 233 227 228 229 224 221 221 233 237 246
269 260 259 275 280 271 253 234 232 235 242 253 258 260 267 273 256 233 230 223 229 230 207 203 202 202 193 232 238 219 209 219 229 230 219 238 247 246
274 271 261 259 261 264 262 260 260 257 245 250 258 260 266 269 257 244 232 218 223 207 213 153 188 203 231 270 279 250 230 242 244 228 225 225 238 251
289 274 262 263 269 264 250 249 229 240 241 249 249 257 240 225 206 160 150 140 139 139 178 156 308 236 224 234 184 201 204 233 225 219 222 215 205 219
13 6 29 300 274 263 244 228 219 203 179 169 152 142 131 139 131 138 137 136 139 148 151 155 197 206 193 175 196 205 240 250 177 190 227 218 228 236
Wind_Speed_850mb
38 38 39 48 51 37 35 22 22 28 32 31 27 29 22 26 32 29 28 26 24 23 25 25 24 21 20 19 18 18 21 24 24 25 28 31 31 33
37 34 33 38 41 43 43 46 42 40 37 28 30 36 39 32 29 26 28 25 22 21 22 16 15 11 13 11 12 11 11 16 23 26 27 33 39 41
32 33 30 30 34 35 35 36 33 35 41 27 33 34 36 26 29 28 28 29 26 23 21 14 13 10 10 9 10 10 11 13 19 27 33 43 40 40
27 27 27 31 36 34 29 32 32 37 46 43 39 38 33 37 31 26 31 31 25 21 22 17 15 14 13 11 8 8 11 14 22 30 39 36 44 35
24 25 26 28 33 32 30 32 35 33 35 35 30 40 43 43 36 35 35 29 27 25 24 22 19 16 15 14 12 11 12 18 25 33 41 41 36 28
22 22 23 27 28 29 33 33 33 34 32 32 35 41 41 41 44 40 39 34 28 28 22 20 19 19 17 16 13 13 15 29 39 38 38 37 32 27
22 20 21 24 30 30 23 27 30 29 26 25 33 45 45 46 47 46 42 34 31 28 24 23 22 21 21 18 18 18 23 26 34 32 28 26 26 25
19 22 24 33 40 46 44 41 33 27 31 30 33 38 43 41 44 47 46 42 41 32 26 22 19 21 19 21 25 21 27 27 29 28 25 26 26 26
25 26 27 29 36 33 36 43 48 50 50 39 38 32 29 34 38 43 54 46 42 29 34 30 29 27 25 27 26 36 31 31 32 29 26 27 28 27
29 30 32 36 31 33 32 38 34 41 48 45 37 33 33 40 28 38 48 40 46 41 32 30 31 34 35 34 30 34 36 35 32 30 30 29 29 27
34 36 38 39 39 46 44 34 34 31 34 36 42 41 36 38 32 42 52 53 54 47 44 39 36 37 35 41 35 36 40 38 36 34 33 31 29 29
37 39 42 47 45 50 55 50 41 44 36 40 40 46 39 37 37 43 46 60 55 47 46 54 40 43 32 34 35 37 46 46 42 39 36 33 33 33
48 46 44 51 51 53 63 59 51 42 37 44 41 34 39 40 41 45 45 47 58 49 37 55 40 42 33 29 45 45 45 51 50 47 44 41 38 34
57 52 51 56 58 62 64 66 59 51 43 42 45 40 39 41 41 45 51 50 46 42 39 44 42 46 43 37 39 43 38 39 46 50 49 44 41 39
61 58 63 65 70 71 67 73 68 68 54 52 50 49 47 42 40 42 43 49 53 52 52 47 53 44 46 49 44 43 41 47 46 39 40 47 48 45
55 55 60 73 80 95 83 80 82 77 61 58 56 50 47 48 54 52 47 49 44 45 50 54 57 55 41 40 44 50 52 52 52 48 45 43 43 34
33 48 50 53 55 65 84 91 91 84 73 61 60 59 61 57 52 55 58 52 52 51 53 55 52 58 46 42 37 41 46 55 47 54 52 50 49 37
49 57 53 45 38 41 45 57 81 74 68 69 69 68 63 66 65 63 63 62 61 56 55 52 48 47 46 44 43 36 33 39 43 43 44 40 43 49
54 50 46 34 28 36 40 57 53 61 67 66 67 70 65 67 70 74 71 72 67 72 55 54 46 46 43 42 37 40 28 28 30 35 37 36 32 35
32 39 38 34 34 31 30 51 58 61 59 57 61 55 57 60 69 74 76 71 65 33 38 56 51 36 24 24 21 27 21 15 17 22 26 25 26 29
21 25 29 32 30 29 33 35 40 45 40 43 50 47 49 50 56 44 35 31 27 40 33 15 0 11 8 14 14 22 19 23 25 23 20 15 11 13
23 26 30 32 28 26 25 25 27 30 38 44 42 37 28 25 19 20 26 20 19 10 11 8 12 13 14 10 9 18 16 18 19 26 26 23 18 13
10 7 6 5 12 20 22 23 20 18 15 19 27 29 28 38 28 28 24 19 14 15 14 19 25 22 15 19 16 12 16 11 10 5 13 18 19 29
Wind_Direction_850mb
259 254 243 229 216 216 221 225 230 242 261 258 256 259 240 252 260 265 262 278 279 285 287 283 279 276 277 277 271 259 245 234 226 218 213 221 188 178
252 249 239 228 223 226 236 245 251 249 251 253 252 250 253 266 259 254 262 270 268 279 280 271 269 274 275 276 274 257 236 214 207 202 189 177 175 173
246 241 233 234 233 244 241 242 250 245 248 253 247 246 269 250 258 259 262 261 271 269 267 266 261 247 254 242 236 225 206 190 182 178 174 176 174 170
239 235 233 234 244 239 240 242 244 247 244 251 251 251 246 270 265 259 259 264 262 261 247 240 241 236 238 239 229 198 182 181 157 164 167 176 173 179
236 242 238 228 237 239 239 246 250 255 250 247 249 249 253 263 262 254 255 255 258 249 231 234 232 235 234 235 225 211 194 187 178 179 176 166 176 180
242 234 237 245 244 241 241 241 241 248 249 249 246 252 254 257 259 249 247 241 235 227 231 237 238 232 231 231 220 208 160 160 164 165 170 174 187 195
260 258 251 246 243 246 237 247 242 248 247 248 244 253 260 258 251 243 236 231 227 226 226 229 226 228 224 215 203 182 184 194 186 174 181 192 201 207
249 255 254 263 256 250 250 246 242 236 241 248 263 263 263 257 251 238 223 217 217 215 208 215 220 209 236 217 196 198 204 202 200 192 201 203 211 222
241 240 251 259 260 252 263 253 248 248 249 246 250 262 269 266 243 231 220 219 217 222 211 210 211 219 222 225 206 205 211 205 203 207 219 225 227 225
237 245 248 251 246 248 241 260 263 250 247 241 248 246 246 263 252 230 219 217 216 220 204 206 202 213 217 235 226 215 207 206 216 227 228 224 222 225
247 243 244 247 248 250 251 240 244 244 249 242 234 238 242 241 243 216 213 208 212 218 212 206 206 212 218 230 233 221 217 216 222 225 226 224 223 224
258 259 249 245 240 252 254 249 232 244 237 253 250 245 245 242 238 230 225 219 216 213 215 204 200 203 212 219 231 228 219 220 221 226 226 226 223 224
250 250 251 254 259 256 249 250 238 240 242 233 242 237 237 237 231 222 219 225 223 219 225 214 203 201 206 208 222 237 230 223 220 224 223 222 224 225
256 256 257 255 258 260 257 256 247 234 231 237 232 231 228 224 229 228 218 225 223 225 226 218 211 208 212 208 199 213 224 221 225 227 225 224 224 223
263 257 252 254 255 254 254 251 248 234 229 234 232 234 235 229 228 227 233 227 224 224 218 221 211 219 219 222 211 213 212 214 226 220 228 225 223 226
272 270 266 264 259 255 248 242 243 230 226 230 236 236 235 234 230 220 220 229 219 223 217 229 224 213 221 218 226 216 204 207 220 215 215 223 237 238
255 267 281 290 280 265 257 252 235 222 224 225 232 236 233 225 224 231 231 231 217 216 218 221 223 215 216 224 225 224 215 212 210 217 214 214 218 218
267 272 275 288 288 281 263 237 223 220 228 230 233 238 239 239 233 225 225 222 215 214 220 212 214 212 216 225 227 223 218 219 221 212 210 216 217 229
260 262 267 278 276 270 252 218 215 221 226 236 242 243 247 248 243 229 225 220 225 215 216 213 214 213 217 229 233 227 228 229 224 221 221 233 237 246
269 260 259 275 280 271 253 234 232 235 242 253 258 260 267 273 256 233 230 223 229 230 207 203 202 202 193 232 238 219 209 219 229 230 219 238 247 246
274 271 261 259 261 264 262 260 260 257 245 250 258 260 266 269 257 244 232 218 223 207 213 153 188 203 231 270 279 250 230 242 244 228 225 225 238 251
289 274 262 263 269 264 250 249 229 240 241 249 249 257 240 225 206 160 150 140 139 139 178 156 308 236 224 234 184 201 204 233 225 219 222 215 205 219
13 6 29 300 274 263 244 228 219 203 179 169 152 142 131 139 131 138 137 136 139 148 151 155 197 206 193 175 196 205 240 250 177 190 227 218 228 236